Regional Weather Roundup
Issued by NWS Portland, ME

Current Version | Previous Version | Text Only | Print | Product List | Glossary Off
Versions: 1 2 3 4 5 6 7 8 9 10 11 12 13 14 15 16 17 18 19 20 21 22 23 24 25 26 27 28 29 30 31 32 33 34 35 36 37 38 39 40 41 42 43 44 45 46 47 48 49 50
000 ASUS41 KGYX 270710 RWRGYX WEATHER ROUNDUP FOR MAINE AND NEW HAMPSHIRE NATIONAL WEATHER SERVICE GRAY ME 300 AM EDT THU JUL 27 2017 MEZ002-005-006-010-012-015-018-020-021-024-026-027-029-270800- MAINE CITY SKY/WX TMP DP RH WIND PRES REMARKS PORTLAND CLOUDY 63 56 78 SW5 30.02F SANFORD N/A 61 57 87 S3 30.03F WISCASSET CLOUDY 59 58 96 CALM 30.04F ROCKLAND CLOUDY 60 58 92 CALM 30.03F FRYEBURG LGT RAIN 61 59 93 CALM 30.02F LEWISTONAUBURN CLOUDY 62 55 77 S5 30.01F AUGUSTA MOCLDY 61 56 83 S6 30.01F WATERVILLE CLOUDY 61 57 87 S5 29.98F BANGOR CLOUDY 62 55 77 S7 30.02F GREENVILLE N/A N/A N/A N/A SE3 29.98F MILLINOCKET CLOUDY 64 53 67 CALM 29.99F HOULTON CLOUDY 62 51 67 S7 29.97F PRESQUE ISLE MOCLDY 63 53 70 SE5 29.96F FRENCHVILLE CLOUDY 61 51 70 CALM 29.93F CARIBOU CLOUDY 63 53 70 S5 29.94F $$ NHZ002-005-008-009-011-012-014-270800- NEW HAMPSHIRE CITY SKY/WX TMP DP RH WIND PRES REMARKS PORTSMOUTH MOCLDY 64 57 78 S5 30.01F ROCHESTER MOCLDY 60 55 83 CALM 30.03F NASHUA CLOUDY 63 59 87 CALM 30.05F MANCHESTER CLOUDY 64 56 75 S7 30.03F CONCORD CLOUDY 62 57 83 SE5 30.04F LACONIA CLOUDY 65 56 72 CALM 30.03F PLYMOUTH MOCLDY 60 59 95 CALM 30.02F BERLIN LGT RAIN 62 58 86 CALM 30.01F WHITEFIELD CLOUDY 62 57 83 CALM 30.01F JAFFREY PTCLDY 62 59 90 VRB3 30.07F KEENE CLOUDY 59 58 96 CALM 30.05F LEBANON CLOUDY 64 61 90 W3 30.01F MT WASHINGTON LGT RAIN 46 46 100 W33 N/A VSB 1/16 $$ VTZ005-007-008-270800- VERMONT CITY SKY/WX TMP DP RH WIND PRES REMARKS ST JOHNSBURY N/A 63 62 97 MISG 29.98F MONTPELIER CLOUDY 64 60 87 S8 30.03F BURLINGTON LGT RAIN 67 62 84 S13G21 29.97S $$ MAZ007-012-024-CTZ003-RIZ002-NYZ038-NYZ072-270800- SOUTHERN NEW ENGLAND AND NY CITY SKY/WX TMP DP RH WIND PRES REMARKS BOSTON MOCLDY 64 59 83 SW9 30.05F WORCESTER CLOUDY 59 53 80 SW10 30.08F NANTUCKET PTCLDY 58 56 93 SW5 30.10F PROVIDENCE CLOUDY 62 61 96 SW6 30.09F HARTFORD CLOUDY 62 58 86 S6 30.07F ALBANY CLOUDY 66 56 70 S8 30.02F NEW YORK CITY CLOUDY 68 61 78 SW7 30.08F $$ ANZ081-ANZ082-ANZ150-NHZ014-MEZ023>029-270800- COASTAL MARINE OBSERVATIONS STATION/POSITION TIME TEMP WIND PRES WAVE AIR SEA DIR/SP/G HT/PER (UTC) (F) (DEG/KT/KT) (MB) (FT/S) MOUNT DESERT ROC 0700 58 1017.4F MATINICUS ROCK 0600 58 200/ 14/ 14 1017.4F ISLE OF SHOALS 0600 65 220/ 14/ 15 1017.3F JEFFREYS LEDGE 0636 63 N/A 3/ 8 CASHES LEDGE BUO 0650 62 61 1017.4F 3/ 7 GEORGES BANK BUO 0550 61 62 1018.8 5/ 8 $$ .............KEY.............. WCI - WIND CHILL TC - TEMPERATURE IN CELSIUS VSB - VISIBILITY IN MILES HX - HEAT INDEX FAIR- INDICATES FEW OR NO CLOUDS BELOW 12,000 FT, WITH NO SIGNIFICANT WEATHER AND/OR OBSTRUCTIONS TO VISIBILITY.

USA.gov is the U.S. government's official web portal to all federal, state and local government web resources and services.